Dallas, TX

4:00 PM CST on February 07, 2016 (GMT -0600)
Redbird

Weather History for KRBD - June, 2013

Change the Weather History Date:

Wednesday, June 26, 2013

  Actual Average Record
Temperature  
Mean Temperature 86 °F -  
Max Temperature 97 °F 89 °F 107 °F (2012)
Min Temperature 77 °F 70 °F 66 °F (2001)
Cooling Degree Days 22    
Growing Degree Days 36 (Base 50)    
Moisture  
Dew Point 68 °F    
Average Humidity 55    
Maximum Humidity 79    
Minimum Humidity 37    
Precipitation  
Precipitation 0.00 in - - ()
Sea Level Pressure  
Sea Level Pressure 29.88 in    
Wind  
Wind Speed 10 mph (South)    
Max Wind Speed 14 mph    
Max Gust Speed 24 mph    
Visibility 10 miles    
Events      
Averages and records for this station are not official NWS values.
T = Trace of Precipitation, MM = Missing Value Source: NWS Daily Summary

Daily Weather History Graph

Daily Weather History Graph

Search for Another Location

Airport or City:

Trip Planner

Search our weather history database for the weather conditions in past years. The results will help you decide how hot, cold, wet, or windy it might be!

Date:

Astronomy

Jun. 26, 2013 Rise Set
Actual Time 6:21 AM CDT 8:39 PM CDT
Civil Twilight 5:53 AM CDT 9:07 PM CDT
Nautical Twilight 5:18 AM CDT 9:42 PM CDT
Astronomical Twilight 4:40 AM CDT 10:20 PM CDT
Moon 11:18 PM CDT (6/26) 10:02 AM CDT (6/26)
Length of Visible Light 15h 14m
Length of Day
14h 17m
Waning Gibbous, 85% of the Moon is Illuminated
Jun 26
Waning Gibbous
Jun 29
Last Quarter
Jul 8
New
Jul 15
First Quarter
Jul 22
Full

Hourly Weather History & Observations

Time (CDT) Temp. Heat Index Dew Point Humidity Pressure Visibility Wind Dir Wind Speed Gust Speed Precip Events Conditions
12:53 AM 84.9 °F 86.1 °F 64.0 °F 49% 29.86 in 10.0 mi South 10.4 mph 18.4 mph N/A   Clear
1:53 AM 82.9 °F 84.6 °F 64.9 °F 54% 29.84 in 10.0 mi South 9.2 mph 20.7 mph N/A   Clear
2:53 AM 81.0 °F 83.0 °F 66.0 °F 60% 29.84 in 10.0 mi South 8.1 mph 16.1 mph N/A   Clear
3:53 AM 80.1 °F 82.1 °F 66.0 °F 62% 29.84 in 10.0 mi South 11.5 mph 19.6 mph N/A   Clear
4:53 AM 78.1 °F - 68.0 °F 71% 29.85 in 10.0 mi South 9.2 mph - N/A   Clear
5:53 AM 77.0 °F - 69.1 °F 76% 29.87 in 10.0 mi South 8.1 mph 19.6 mph N/A   Clear
6:53 AM 77.0 °F - 70.0 °F 79% 29.89 in 10.0 mi South 11.5 mph 18.4 mph N/A   Clear
7:53 AM 78.1 °F - 70.0 °F 76% 29.91 in 10.0 mi South 9.2 mph 18.4 mph N/A   Partly Cloudy
8:53 AM 81.0 °F 84.4 °F 70.0 °F 69% 29.93 in 10.0 mi South 12.7 mph 23.0 mph N/A   Partly Cloudy
9:53 AM 82.9 °F 87.0 °F 70.0 °F 65% 29.93 in 10.0 mi South 13.8 mph 23.0 mph N/A   Clear
10:53 AM 87.1 °F 92.0 °F 70.0 °F 57% 29.94 in 10.0 mi South 12.7 mph 23.0 mph N/A   Clear
11:53 AM 88.0 °F 92.9 °F 70.0 °F 55% 29.94 in 10.0 mi SSW 10.4 mph 18.4 mph N/A   Clear
12:53 PM 91.0 °F 96.6 °F 70.0 °F 50% 29.93 in 10.0 mi SSW 11.5 mph 24.2 mph N/A   Clear
1:53 PM 93.0 °F 100.1 °F 71.1 °F 49% 29.91 in 10.0 mi South 12.7 mph 21.9 mph N/A   Clear
2:53 PM 95.0 °F 102.5 °F 71.1 °F 46% 29.88 in 10.0 mi SSE 10.4 mph 23.0 mph N/A   Clear
3:53 PM 95.0 °F 102.5 °F 71.1 °F 46% 29.86 in 10.0 mi Variable 5.8 mph 16.1 mph N/A   Clear
4:53 PM 96.1 °F 102.9 °F 70.0 °F 43% 29.86 in 10.0 mi South 6.9 mph - N/A   Clear
5:53 PM 96.1 °F 101.6 °F 69.1 °F 41% 29.84 in 10.0 mi South 9.2 mph 17.3 mph N/A   Clear
6:53 PM 96.1 °F 99.3 °F 66.0 °F 37% 29.83 in 10.0 mi South 11.5 mph - N/A   Clear
7:53 PM 93.9 °F 97.0 °F 66.0 °F 40% 29.83 in 10.0 mi South 8.1 mph - N/A   Clear
8:53 PM 91.9 °F 95.4 °F 66.9 °F 44% 29.83 in 10.0 mi South 6.9 mph - N/A   Clear
9:53 PM 90.0 °F 92.8 °F 66.9 °F 46% 29.85 in 10.0 mi SSE 5.8 mph - N/A   Clear
10:53 PM 89.1 °F 91.0 °F 64.9 °F 45% 29.88 in 10.0 mi SSE 6.9 mph - N/A   Clear
11:53 PM 87.1 °F 88.9 °F 64.9 °F 48% 29.89 in 10.0 mi SSE 5.8 mph - N/A   Clear